Date Time,Air Temp,Sky Temp,Clarity,Light Level,Rain Sensor,Readings
2014-03-23 14:10:02,22.3,-12.4,34.7,32.6,1.9,38
2014-03-23 14:15:02,22.3,-11.9,34.2,32.6,2.0,111
2014-03-23 14:20:10,22.5,-10.1,32.6,32.6,2.3,112
2014-03-23 14:25:10,21.7,-10.4,32.0,32.6,2.2,111
2014-03-23 14:30:10,21.8,-7.1,29.0,32.6,2.2,112
2014-03-23 14:35:10,22.2,-11.2,33.4,32.6,2.4,112
2014-03-23 14:40:10,22.7,-10.5,33.2,32.6,2.6,111
2014-03-23 14:45:10,23.2,-9.9,33.1,32.6,2.4,112
2014-03-23 14:50:10,23.5,-8.9,32.4,32.6,2.3,111
2014-03-23 14:55:10,23.6,-9.3,32.9,32.6,2.3,112
2014-03-23 15:00:10,22.6,-16.0,38.6,32.5,2.4,111
2014-03-23 15:05:10,21.4,-13.3,34.7,32.6,2.1,112
2014-03-23 15:10:10,22.5,-11.6,34.1,32.6,2.1,111
2014-03-23 15:15:10,23.2,-13.4,36.6,32.6,2.5,111
2014-03-23 15:20:10,23.5,-12.8,36.3,32.6,2.7,112
2014-03-23 15:25:10,23.6,-13.1,36.8,32.6,2.4,112
2014-03-23 15:30:10,23.5,-11.7,35.2,32.6,2.3,111
2014-03-23 15:35:10,23.4,-13.8,37.2,32.6,2.3,112
2014-03-23 15:40:10,22.9,-13.0,35.9,32.6,2.4,112
2014-03-23 15:45:10,23.0,-14.1,37.1,32.6,2.6,111
2014-03-23 15:50:10,22.9,-14.8,37.7,32.6,2.7,112
2014-03-23 15:55:10,22.8,-14.7,37.5,32.6,2.6,111
2014-03-23 16:00:10,22.9,-14.0,36.8,32.6,2.6,111
2014-03-23 16:05:10,23.0,-14.0,36.9,32.6,2.7,112
2014-03-23 16:10:10,23.1,-12.6,35.7,32.6,2.6,111
2014-03-23 16:15:10,23.2,-12.4,35.6,32.6,2.3,112
2014-03-23 16:20:10,23.3,-12.3,35.6,32.6,2.3,112
2014-03-23 16:25:10,23.3,-13.0,36.3,32.6,2.3,112
2014-03-23 16:30:10,23.3,-13.7,37.0,32.6,2.3,111
2014-03-23 16:35:10,23.4,-12.0,35.4,32.6,2.3,112
2014-03-23 16:40:10,23.4,-13.2,36.6,32.6,2.3,112
2014-03-23 16:45:10,23.3,-13.5,36.8,32.6,2.3,111
2014-03-23 16:50:10,23.1,-13.7,36.8,32.6,2.3,112
2014-03-23 16:55:10,23.0,-13.6,36.6,32.6,2.4,111
2014-03-23 17:00:10,22.9,-14.9,37.8,32.6,2.5,111
2014-03-23 17:05:10,22.7,-14.5,37.2,32.6,2.7,112
2014-03-23 17:10:10,22.5,-16.5,39.0,32.5,2.5,111
2014-03-23 17:15:10,21.6,-15.4,37.0,32.5,2.2,112
2014-03-23 17:20:10,21.2,-16.2,37.4,32.5,2.0,111
2014-03-23 17:25:10,21.1,-14.5,35.6,32.5,2.3,112
2014-03-23 17:30:10,21.1,-16.2,37.3,32.4,2.3,111
2014-03-23 17:35:10,20.7,-10.1,30.8,32.2,2.3,112
2014-03-23 17:40:10,20.2,-0.9,21.1,31.5,2.6,111
2014-03-23 17:45:10,18.4,-2.3,20.6,31.1,8.2,111
2014-03-23 17:50:10,17.9,-4.1,22.1,31.5,2.4,112
2014-03-23 17:55:10,17.9,-6.7,24.6,31.9,2.3,112
2014-03-23 18:00:10,17.9,-10.0,27.9,32.1,2.3,111
2014-03-23 18:05:10,18.1,-9.2,27.3,31.9,2.3,112
2014-03-23 18:10:10,18.1,-14.5,32.6,31.9,2.3,111
2014-03-23 18:15:10,18.1,-13.9,32.0,31.6,2.3,111
2014-03-23 18:20:10,17.9,-12.1,30.1,31.1,2.3,112
2014-03-23 18:25:10,17.8,-16.2,34.0,30.4,2.5,111
2014-03-23 18:30:10,17.8,-17.5,35.2,29.2,2.4,112
2014-03-23 18:35:10,17.8,-16.5,34.3,27.2,2.5,111
2014-03-23 18:40:10,17.8,-15.9,33.7,23.4,2.4,111
2014-03-23 18:45:11,17.7,-15.9,33.6,17.5,2.3,112
2014-03-23 18:50:11,17.6,-16.3,34.0,12.3,2.3,111
2014-03-23 18:55:11,17.5,-17.5,35.0,7.9,2.3,111
2014-03-23 19:00:11,17.5,-17.8,35.3,4.7,2.3,112
2014-03-23 19:05:11,17.4,-18.4,35.8,2.6,2.3,112
2014-03-23 19:10:11,17.4,-18.6,36.0,1.4,2.3,111
2014-03-23 19:15:11,17.4,-18.3,35.7,0.7,2.3,112
2014-03-23 19:20:11,17.4,-17.6,35.0,0.3,2.3,112
2014-03-23 19:25:11,17.5,-18.3,35.8,0.1,2.3,111
2014-03-23 19:30:11,17.5,-17.8,35.4,0.0,2.3,112
2014-03-23 19:35:11,17.6,-18.6,36.1,0.0,2.3,112
2014-03-23 19:40:11,17.6,-18.9,36.5,0.0,2.3,111
2014-03-23 19:45:11,17.6,-19.2,36.8,0.0,2.3,112
2014-03-23 19:50:11,17.6,-19.3,36.9,0.0,2.3,111
2014-03-23 19:55:11,17.5,-19.4,36.9,0.0,2.3,112
2014-03-23 20:00:11,17.4,-19.1,36.5,0.0,2.3,112
2014-03-23 20:05:11,17.4,-18.8,36.2,0.0,2.3,111
2014-03-23 20:10:11,17.4,-18.8,36.2,0.0,2.3,111
2014-03-23 20:15:11,17.4,-18.8,36.2,0.0,2.3,112
2014-03-23 20:20:11,17.4,-18.5,35.9,0.0,2.3,111
2014-03-23 20:25:11,17.5,-18.9,36.3,0.0,2.3,112
2014-03-23 20:30:11,17.4,-19.4,36.8,0.0,2.3,112
2014-03-23 20:35:11,17.3,-19.4,36.7,0.0,2.3,111
2014-03-23 20:40:11,17.2,-19.6,36.8,0.0,2.3,112
2014-03-23 20:45:11,17.1,-19.4,36.5,0.0,2.3,111
2014-03-23 20:50:11,17.0,-19.5,36.5,0.0,2.3,111
2014-03-23 20:55:11,16.9,-19.8,36.7,0.0,2.3,112
2014-03-23 21:00:11,16.9,-19.9,36.8,0.0,2.3,111
2014-03-23 21:05:11,16.9,-19.7,36.6,0.0,2.3,111
2014-03-23 21:10:11,16.9,-19.7,36.6,0.0,2.4,112
2014-03-23 21:15:11,16.9,-19.5,36.4,0.0,2.4,111
2014-03-23 21:20:11,16.9,-19.0,36.0,0.0,2.3,112
2014-03-23 21:25:11,17.0,-18.1,35.1,0.0,2.3,111
2014-03-23 21:30:11,17.0,-18.7,35.7,0.0,2.3,112
2014-03-23 21:35:11,16.9,-19.5,36.5,0.0,2.3,111
2014-03-23 21:40:11,16.8,-19.7,36.5,0.0,2.4,111
2014-03-23 21:45:11,16.8,-19.9,36.7,0.0,2.4,112
2014-03-23 21:50:11,16.6,-20.2,36.8,0.0,2.3,111
2014-03-23 21:55:11,16.1,-19.9,36.0,0.0,2.4,112
2014-03-23 22:00:11,16.1,-20.0,36.1,0.0,2.4,111
2014-03-23 22:05:11,16.0,-19.9,35.9,0.0,2.5,112
2014-03-23 22:10:11,15.8,-19.7,35.4,0.0,2.5,111
2014-03-23 22:15:11,15.6,-19.8,35.4,0.0,2.5,112
2014-03-23 22:20:11,15.5,-19.9,35.4,0.0,2.5,112
2014-03-23 22:25:11,15.3,-20.0,35.3,0.0,2.5,112
2014-03-23 22:30:11,15.2,-20.2,35.4,0.0,2.5,112
2014-03-23 22:35:11,15.1,-20.2,35.3,0.0,2.5,111
2014-03-23 22:40:11,15.5,-20.4,35.9,0.0,2.6,112
2014-03-23 22:45:11,15.6,-20.8,36.4,0.0,2.6,112
2014-03-23 22:50:11,15.6,-20.8,36.4,0.0,2.6,111
2014-03-23 22:55:11,15.6,-20.9,36.5,0.0,2.6,112
2014-03-23 23:00:11,15.8,-20.9,36.7,0.0,2.6,111
2014-03-23 23:05:11,15.9,-19.8,35.8,0.0,2.6,112
2014-03-23 23:10:11,16.0,-18.7,34.8,0.0,2.5,112
2014-03-23 23:15:11,16.2,-19.2,35.4,0.0,2.5,111
2014-03-23 23:20:11,16.3,-18.4,34.7,0.0,2.5,112
2014-03-23 23:25:11,16.3,-18.3,34.6,0.0,2.5,112
2014-03-23 23:30:11,16.1,-18.3,34.5,0.0,2.5,112
2014-03-23 23:35:11,16.0,-18.4,34.4,0.0,2.5,111
2014-03-23 23:40:11,15.9,-18.6,34.4,0.0,2.5,112
2014-03-23 23:45:11,15.7,-18.6,34.2,0.0,2.4,112
2014-03-23 23:50:11,15.3,-18.5,33.8,0.0,2.5,112
2014-03-23 23:55:11,15.1,-18.5,33.6,0.0,2.4,111
